カタログに戻る

FENGYUN 1C DEB

運用中SSO
NORAD 29792·DEBRIS·🇨🇳 China

打ち上げ May 10, 1999 から Taiyuan Satellite Launch Center

Loading…

次のパス (今後24時間)

TLE

最新Source: Space-Track

元期: Sep 14, 2026, 01:54 UTC

1 29792U 99025CJ  26257.07957048  .00001241  00000-0  64210-3 0  9990
2 29792  98.7347 307.5114 0047385 328.6973  31.1382 14.16186887  8360

AllMySatでFENGYUN 1C DEBをリアルタイム追跡

Download on the App Store